Regional Weather Roundup
Issued by NWS Portland, ME

Home | Current Version | Previous Version | Text Only | Print | Product List | Glossary On
Versions: 1 2 3 4 5 6 7 8 9 10 11 12 13 14 15 16 17 18 19 20 21 22 23 24 25 26 27 28 29 30 31 32 33 34 35 36 37 38 39 40 41 42 43 44 45 46 47 48 49 50
000
ASUS41 KGYX 250510
RWRGYX
WEATHER ROUNDUP FOR MAINE AND NEW HAMPSHIRE
NATIONAL WEATHER SERVICE GRAY ME
100 AM EDT TUE APR 25 2017

MEZ002-005-006-010-012-015-018-020-021-024-026-027-029-250600-
MAINE

CITY           SKY/WX    TMP DP  RH WIND       PRES   REMARKS
PORTLAND       CLOUDY    45  43  93 E7        30.27S
SANFORD        CLOUDY    41  41 100 NE6       30.26S
BAR HARBOR     PTCLDY    39  38  96 N6        30.31R
WISCASSET      CLEAR     39  37  92 CALM      30.30R
ROCKLAND       CLEAR     39  39 100 CALM      30.29S FOG
FRYEBURG       CLEAR     37  34  89 S5        30.27R
LEWISTONAUBURN CLEAR     40  38  93 CALM      30.28R
AUGUSTA        PTCLDY    44  37  76 CALM      30.29R
WATERVILLE     CLOUDY    46  30  53 NE8       30.27R
BANGOR         PTCLDY    38  29  70 N5        30.31R
GREENVILLE       N/A     35  19  52 NE5       30.27S
MILLINOCKET    CLEAR     30  26  85 CALM      30.34R
HOULTON        CLEAR     28  23  81 CALM      30.33F
PRESQUE ISLE   CLEAR     30  17  58 N9        30.38R
FRENCHVILLE    CLEAR     26   8  46 N9        30.34R
CARIBOU        CLEAR     29  15  56 CALM      30.36R
$$

NHZ002-005-008-009-011-012-014-250600-
NEW HAMPSHIRE

CITY           SKY/WX    TMP DP  RH WIND       PRES   REMARKS
PORTSMOUTH     MOCLDY    45  42  89 N5        30.23S
ROCHESTER      PTCLDY    43  40  89 CALM      30.24S
NASHUA         PTCLDY    50  44  80 E6        30.23R
MANCHESTER     PTCLDY    48  41  76 NE5       30.22R
CONCORD        PTCLDY    48  40  73 CALM      30.23S
LACONIA        CLOUDY    49  37  63 E10       30.24S
PLYMOUTH       FAIR      42  40  93 CALM      30.24R
BERLIN         CLOUDY    30  27  88 CALM      30.26S
WHITEFIELD     PTCLDY    37  32  82 N3        30.23R
JAFFREY        MOCLDY    45  42  89 CALM      30.20S
KEENE          CLEAR     45  40  82 CALM      30.19S
LEBANON        CLOUDY    45  37  73 CALM      30.20R
MT WASHINGTON  MOCLDY    34  30  86 S13         N/A
$$

VTZ005-007-008-250600-
VERMONT

CITY           SKY/WX    TMP DP  RH WIND       PRES   REMARKS
ST JOHNSBURY     N/A     39  34  82 MISG      30.22S
MONTPELIER     CLEAR     40  33  76 CALM      30.26R
BURLINGTON     CLEAR     41  30  65 NW5       30.23S
$$

MAZ007-012-024-CTZ003-RIZ002-NYZ038-NYZ072-250600-
SOUTHERN NEW ENGLAND AND NY

CITY           SKY/WX    TMP DP  RH WIND       PRES   REMARKS
BOSTON         CLOUDY    50  44  80 E7        30.22R
WORCESTER      CLOUDY    51  36  56 E5        30.19S
NANTUCKET      CLOUDY    48  44  86 E13       30.20F
PROVIDENCE     CLOUDY    50  47  89 CALM      30.20S
HARTFORD       CLOUDY    55  36  48 CALM      30.18R
ALBANY         MOCLDY    48  31  51 N6        30.17F
NEW YORK CITY  CLOUDY    51  46  83 NE13      30.12F
$$

ANZ081-ANZ082-ANZ150-NHZ014-MEZ023>029-250600-
COASTAL MARINE OBSERVATIONS

STATION/POSITION TIME  TEMP    WIND        PRES    WAVE
                       AIR SEA DIR/SP/G            HT/PER
                 (UTC) (F)     (DEG/KT/KT) (MB)    (FT/S)
MOUNT DESERT ROC 0500   37                 1026.0R
MATINICUS ROCK   0400   41      90/  4/  4 1024.8R
ISLE OF SHOALS   0400   46      80/ 15/ 16 1023.4R
JEFFREYS LEDGE   0406      44                N/A     3/10
CASHES LEDGE BUO 0450   43 44              1025.1R   3/11
GEORGES BANK BUO 0350   44 42              1024.2    3/11
$$

.............KEY..............
   WCI - WIND CHILL
   TC  - TEMPERATURE IN CELSIUS
   VSB - VISIBILITY IN MILES
   HX  - HEAT INDEX
   FAIR- INDICATES FEW OR NO CLOUDS BELOW 12,000 FT, WITH NO
         SIGNIFICANT WEATHER AND/OR OBSTRUCTIONS TO VISIBILITY.





USA.gov is the U.S. government's official web portal to all federal, state and local government web resources and services.